RH
15 19 21 19 18 13 9 6 4 3 3 13 11 11 13 39 48 55 36 33 62 71 65 50 45 44 56 60 63 65 66 68 69 73 80 80 81 80 83 86 91 93 95 96 91 91 97 83 73
16 20 16 13 19 15 9 5 3 3 17 16 13 13 13 43 42 35 33 52 62 70 65 64 51 48 57 62 65 68 70 70 76 79 80 80 79 80 84 89 89 90 93 95 97 84 93 80 75
15 19 14 16 16 15 10 5 5 7 10 14 14 18 18 48 40 41 40 52 60 72 76 77 57 52 58 62 64 67 64 66 76 79 79 77 80 80 83 88 88 90 100 100 94 85 80 81 78
18 15 13 16 13 9 7 5 5 8 10 14 13 21 41 37 44 48 41 48 59 68 71 76 62 58 62 67 71 71 68 75 81 81 78 83 88 91 88 89 90 89 87 81 81 84 81 78 73
14 13 16 16 14 10 7 5 5 6 7 10 15 20 40 43 49 52 47 47 57 60 75 71 67 64 69 78 82 81 82 80 80 85 91 94 98 94 94 92 91 85 77 76 75 73 68 66 58
14 12 18 16 12 8 6 6 6 6 8 8 14 19 46 52 51 52 49 47 52 76 74 66 73 72 78 83 82 84 83 81 79 84 84 98 98 92 90 86 80 74 68 63 57 50 42 34 28
15 15 16 13 12 10 7 6 6 8 11 12 13 27 50 51 49 52 48 51 75 87 91 73 82 84 81 84 86 87 85 85 85 85 93 99 88 84 78 72 66 58 48 37 29 21 16 14 13
12 13 14 12 12 10 7 7 8 12 15 22 18 28 50 49 49 52 62 84 84 88 93 88 86 85 86 86 88 90 91 89 89 93 99 87 80 73 68 61 53 40 27 18 13 12 10 9 8
10 16 16 12 10 8 6 8 8 9 13 16 23 26 41 52 49 63 76 89 96 96 94 85 88 90 89 88 91 93 96 96 95 96 88 81 74 67 74 68 34 20 13 12 11 10 16 26 17
12 17 15 10 9 9 9 9 8 9 11 13 14 36 53 56 52 65 79 84 96 99 97 94 95 97 90 93 94 94 99 96 94 87 74 72 69 70 61 40 15 12 10 9 9 19 27 30 34
13 15 12 11 10 9 10 10 9 9 10 9 11 20 52 61 60 64 72 82 90 99 99 100 99 99 93 95 100 99 97 94 90 79 66 76 61 58 41 14 12 12 26 28 31 31 35 34 30
18 13 12 11 11 10 11 10 10 10 10 8 8 13 48 57 62 61 68 82 90 100 100 100 99 95 90 95 98 97 96 89 82 74 72 60 58 50 39 38 39 32 32 33 30 34 37 34 39
17 15 12 12 12 11 10 11 12 11 9 9 8 11 50 56 56 63 60 83 91 100 100 99 98 90 90 89 90 90 86 82 78 75 69 60 49 42 39 35 32 29 30 30 30 32 38 39 42
19 17 15 14 14 13 13 12 11 11 10 10 10 10 22 53 52 60 63 75 88 96 99 98 99 89 87 87 78 83 76 76 74 74 63 52 46 44 37 33 30 27 28 30 30 32 35 37 46
18 20 18 18 16 16 12 13 12 9 9 10 10 10 10 19 44 53 57 64 79 92 95 96 99 94 86 82 80 74 68 70 67 66 59 50 45 43 41 36 32 30 29 31 32 32 34 37 43
24 24 28 20 16 15 15 18 12 9 9 10 10 11 10 16 19 32 51 56 69 85 93 94 96 96 88 82 76 71 65 62 58 53 53 50 48 42 40 36 32 32 33 34 37 34 33 33 40
27 33 28 21 14 14 14 16 11 10 10 13 12 12 11 12 19 24 36 54 64 76 88 92 91 91 89 82 74 68 61 57 50 53 55 54 49 44 40 37 34 36 38 36 36 32 31 32 35
32 27 23 22 16 14 15 17 13 11 12 13 14 14 14 13 13 21 29 44 58 65 83 89 87 81 82 75 69 61 54 51 48 53 57 56 52 46 40 38 38 37 37 38 34 36 34 34 34
30 30 29 23 18 19 19 18 16 14 13 14 14 14 15 16 14 18 26 41 52 57 82 85 80 76 76 69 64 54 57 49 50 52 56 58 54 45 41 41 40 38 38 39 38 38 37 35 30
29 30 29 23 19 21 22 23 18 16 16 15 15 15 15 15 14 15 29 46 54 53 78 81 78 75 73 67 59 52 54 49 50 50 55 54 56 50 43 43 41 39 39 41 47 40 40 39 39
30 32 31 29 23 21 24 27 23 18 16 15 15 14 14 15 15 16 29 44 58 56 66 78 78 76 73 66 58 53 51 48 49 50 59 58 57 54 47 45 45 40 46 49 49 44 41 41 42
37 27 26 28 31 41 28 40 30 23 18 16 15 17 16 16 20 18 21 42 57 57 67 72 75 77 74 66 60 55 53 50 50 55 62 59 57 54 50 45 46 46 49 54 53 50 43 42 41
29 32 36 34 40 46 39 47 35 24 23 18 17 26 28 29 30 29 30 38 49 54 68 71 75 77 76 70 61 57 53 49 49 55 60 61 60 57 53 51 51 52 52 54 54 52 48 42 40
33 41 51 44 47 89 59 42 37 28 28 25 27 29 28 30 31 30 30 32 47 53 67 71 73 75 76 74 66 58 55 56 57 57 60 65 64 60 59 58 58 58 55 56 52 51 46 42 37
26 45 86 72 68 80 42 42 40 36 27 29 30 30 30 31 34 34 36 37 42 53 68 74 73 74 79 78 74 64 60 64 56 57 62 66 67 64 63 62 63 61 60 59 56 53 50 46 43
39 42 84 100 84 84 65 87 63 40 26 26 24 24 24 27 30 32 38 45 40 41 53 69 75 74 78 81 78 68 64 64 59 55 61 64 66 66 66 66 67 65 64 59 57 56 52 50 49
41 50 50 93 74 91 51 41 57 61 69 59 52 32 25 22 24 28 34 42 45 44 40 55 74 76 78 81 79 76 70 74 66 57 56 61 63 66 67 67 69 66 63 60 58 55 53 54 54
52 53 62 82 98 68 38 31 73 96 92 79 56 40 33 26 23 22 29 39 38 42 43 44 51 56 69 78 79 79 73 65 62 63 56 61 60 67 75 72 70 67 65 62 58 53 54 55 55
58 59 73 77 93 88 65 57 85 95 87 75 55 40 40 35 26 24 23 31 36 40 44 46 50 53 54 66 78 77 74 70 63 62 58 59 63 64 73 75 79 74 71 65 61 57 55 53 50
38 42 66 80 86 91 82 60 57 65 79 78 71 54 42 34 31 25 26 23 36 39 41 44 48 52 55 56 61 73 74 70 66 62 60 58 59 65 74 81 80 76 74 64 60 56 55 51 47
Wind_Speed
14 12 11 12 6 7 15 21 21 12 8 14 17 10 13 16 7 11 30 24 37 32 32 32 30 28 26 24 22 20 18 16 16 16 14 13 12 8 9 9 10 11 10 10 10 8 7 7 7
13 17 18 8 9 12 14 19 3 4 10 10 9 10 11 8 10 15 16 37 32 30 31 30 30 29 27 25 23 21 19 17 16 16 15 14 13 10 10 11 11 12 10 8 8 4 6 5 5
12 15 7 6 12 14 17 19 3 11 10 8 6 4 10 7 12 13 16 35 32 29 28 28 31 29 27 26 23 21 20 18 16 14 13 14 13 13 10 9 9 9 10 9 7 5 4 5 6
7 7 7 9 17 20 22 19 8 2 5 1 10 2 9 7 13 12 24 28 31 29 28 29 31 29 27 25 23 20 19 19 16 12 13 14 13 13 12 10 9 8 5 5 5 5 6 6 7
15 6 9 14 18 21 21 15 7 11 8 8 8 8 7 11 16 21 27 26 29 28 30 31 30 29 27 24 22 21 19 17 16 15 15 14 13 12 12 11 9 7 7 6 6 6 7 6 7
8 9 12 13 19 18 17 6 6 8 11 16 8 12 6 14 19 21 24 24 25 31 31 32 30 27 26 23 22 22 20 19 19 19 15 14 13 13 12 11 10 9 8 7 6 5 6 5 6
12 11 15 19 18 21 21 16 3 5 14 12 4 4 8 12 19 22 22 20 27 29 28 33 29 26 25 25 25 23 23 23 22 20 15 15 14 14 13 12 10 9 7 6 5 4 5 5 6
12 11 20 17 15 18 17 5 5 0 13 14 4 5 6 13 21 26 21 21 22 26 28 31 29 29 29 27 25 25 25 25 22 19 18 17 15 12 10 10 10 8 7 6 5 5 6 8 8
19 12 15 20 19 20 14 4 1 5 7 9 3 7 11 25 23 25 22 20 22 23 29 31 30 30 29 27 26 25 25 24 22 20 17 15 15 14 12 11 10 7 5 5 6 7 8 12 12
13 13 21 20 20 17 18 16 13 11 11 11 9 17 22 24 23 22 21 20 21 23 27 31 31 29 30 27 27 27 26 24 22 21 20 17 14 13 11 10 7 7 8 8 9 10 9 6 3
18 17 21 21 20 18 17 19 17 16 16 14 9 15 23 20 20 19 21 24 25 26 28 29 32 31 29 27 30 28 26 24 20 21 23 16 20 18 9 12 11 9 9 8 7 7 6 5 8
21 21 21 19 20 21 18 19 19 18 19 17 12 1 19 19 18 18 23 24 25 28 30 27 33 34 29 28 29 26 24 25 24 24 19 24 21 19 10 7 8 6 5 8 7 7 7 7 9
22 23 20 20 22 22 21 20 21 21 20 18 17 8 21 18 18 23 22 26 27 27 30 32 32 35 31 32 31 26 25 26 24 25 22 25 19 20 18 15 12 11 10 10 9 7 9 9 9
21 23 25 24 24 24 25 24 21 21 19 20 19 19 12 22 19 21 25 25 30 31 31 33 33 37 32 29 32 27 25 25 24 26 26 23 21 21 19 20 14 13 11 11 10 10 11 12 10
20 24 20 21 22 25 25 26 27 24 23 22 21 20 19 14 24 22 27 29 33 32 31 31 33 36 35 29 28 25 23 25 25 25 26 23 21 23 20 19 17 15 15 16 15 13 10 10 12
24 25 23 23 25 24 25 25 23 20 17 21 23 20 19 16 17 24 32 33 32 33 35 33 33 36 37 29 27 26 25 26 25 25 28 26 21 25 21 20 18 18 16 13 11 12 12 12 12
18 21 26 27 25 26 24 25 18 17 18 12 12 13 16 16 18 24 29 30 33 37 37 38 36 34 33 30 27 27 26 27 26 27 27 27 23 25 22 20 19 17 15 15 14 13 13 13 13
18 21 21 21 21 20 19 20 22 11 16 17 13 15 16 14 15 23 27 32 32 31 38 38 37 33 31 28 28 26 29 26 27 26 26 28 27 26 22 21 22 19 18 16 15 15 12 14 14
24 25 26 23 23 25 22 23 20 19 16 15 15 13 16 17 16 22 28 31 30 28 40 40 39 36 34 28 28 27 28 27 27 25 25 28 28 28 23 22 21 20 19 18 17 17 16 13 14
25 27 26 25 24 21 21 26 24 22 20 19 16 18 20 17 16 13 25 30 33 28 39 39 40 41 36 31 28 26 26 26 25 26 27 28 27 28 25 24 25 21 20 20 18 18 16 14 16
25 24 23 26 23 24 20 28 20 25 21 20 21 19 18 15 16 15 16 27 33 30 38 38 39 38 38 32 28 26 25 24 25 26 28 27 27 27 25 23 23 22 22 22 21 19 18 13 14
24 16 22 24 21 16 17 20 22 21 21 18 21 18 22 13 9 10 6 22 32 33 35 36 36 36 35 34 31 29 27 23 24 25 26 27 27 29 23 26 23 23 20 19 21 19 16 14 12
26 11 16 21 20 21 28 10 26 16 20 20 14 15 15 13 12 12 13 9 30 32 34 36 35 34 34 35 30 30 26 26 27 27 26 26 26 27 23 25 23 24 20 21 19 19 17 14 14
11 12 15 15 12 8 30 12 23 14 14 13 14 14 13 13 13 12 13 22 27 25 23 33 34 32 35 37 33 31 30 28 25 26 27 28 27 26 25 25 25 24 21 23 20 17 15 12 11
15 11 4 6 10 11 18 14 15 17 9 16 15 13 12 13 14 15 17 13 16 14 24 25 27 28 30 34 33 26 31 29 27 29 28 27 26 28 29 29 26 25 22 22 21 18 15 14 12
13 11 8 6 7 3 7 6 2 13 16 13 12 10 11 11 10 13 15 14 13 16 9 21 24 24 25 30 33 30 29 30 25 29 27 27 27 25 26 25 24 23 22 21 20 19 17 15 15
8 10 10 6 11 5 8 15 9 11 20 17 15 17 18 14 11 10 10 13 16 17 9 2 21 23 27 28 30 30 28 31 29 27 28 28 27 26 29 27 23 21 21 21 19 19 17 16 14
5 8 6 3 5 12 13 17 2 11 11 11 13 13 19 20 16 13 6 7 12 14 15 7 7 8 19 33 34 32 32 32 28 24 31 29 28 26 30 26 25 24 21 20 18 19 17 16 14
4 2 1 4 3 5 9 1 6 9 10 10 15 18 20 20 16 16 13 4 4 4 6 8 7 8 12 18 28 29 32 31 33 27 33 32 31 33 35 33 32 31 26 23 20 20 20 19 16
14 10 5 3 2 3 4 5 13 13 9 6 6 12 16 15 14 14 17 17 6 6 3 4 8 10 13 12 21 30 31 32 32 32 35 37 36 36 37 33 32 33 31 29 25 23 22 21 18
Wind_Direction
290 273 248 251 247 231 254 247 238 248 330 7 26 6 355 45 10 103 139 138 125 139 152 158 159 159 160 158 157 157 157 155 149 147 142 140 137 139 136 129 127 120 115 108 100 98 92 79 73
283 265 237 275 242 261 257 261 235 38 65 5 9 341 322 78 73 119 121 124 129 141 153 161 162 161 163 162 161 160 160 158 154 152 151 153 152 141 138 130 125 122 121 115 110 136 98 84 74
273 271 266 234 244 249 272 302 334 40 32 348 308 44 328 83 119 123 140 129 135 144 150 165 164 163 165 164 163 163 161 158 155 153 162 161 160 158 151 149 144 140 116 114 113 123 106 93 76
253 234 240 263 264 275 288 295 54 359 300 307 275 218 84 68 137 128 145 141 141 148 158 169 165 165 166 165 163 160 159 154 152 164 159 153 156 152 157 161 156 150 152 133 124 116 103 92 83
250 275 267 268 279 273 272 291 350 318 311 258 217 239 106 91 111 142 149 154 146 157 165 167 166 166 167 165 162 156 157 157 163 172 159 154 154 162 165 167 167 161 149 135 125 116 102 89 83
265 249 265 269 269 285 306 16 313 305 299 283 204 249 94 132 133 149 156 158 156 147 162 168 167 168 164 164 165 167 164 165 168 169 176 162 159 166 166 164 162 155 145 135 126 118 105 96 86
256 277 275 276 292 294 297 322 130 289 289 260 178 271 120 154 148 152 157 152 131 140 148 162 163 163 168 173 174 172 171 172 175 177 174 173 168 164 162 160 157 152 147 138 128 109 97 91 88
250 267 276 272 275 285 293 311 12 324 284 23 100 222 167 162 156 157 139 118 132 142 151 159 169 176 176 176 180 179 177 179 182 184 176 172 166 162 159 162 161 160 154 146 126 102 90 81 78
264 269 268 272 276 280 321 358 344 276 297 301 188 267 101 149 164 137 141 141 146 152 162 166 178 179 179 179 182 185 184 185 183 179 175 164 156 143 143 172 163 158 144 132 120 102 92 83 68
244 248 263 275 288 324 332 310 313 275 230 228 251 112 134 154 171 158 163 165 157 163 168 173 177 179 182 177 179 181 178 179 176 172 161 146 146 161 175 166 152 147 134 121 110 102 85 78 52
271 258 269 270 287 310 301 302 303 292 260 262 244 197 155 163 177 180 187 180 171 169 172 172 173 178 182 181 176 177 178 175 177 173 161 166 167 170 177 154 146 136 122 111 99 78 96 140 101
281 274 261 276 284 296 287 286 280 266 276 286 295 31 148 173 183 194 183 181 176 174 178 174 175 181 180 180 174 177 176 176 178 181 169 174 177 178 172 156 144 146 146 155 148 168 120 109 112
272 273 279 282 280 275 278 270 270 269 275 285 288 267 160 183 190 195 203 179 176 178 180 180 180 183 178 177 177 182 184 180 178 181 183 188 174 167 175 176 173 175 181 161 161 136 127 124 118
286 288 285 282 282 287 282 275 266 256 256 258 265 269 191 181 192 193 200 184 186 186 185 185 182 185 181 177 179 187 187 179 180 182 181 182 183 176 176 173 175 168 167 166 163 159 148 144 140
280 274 277 274 272 271 272 265 256 252 248 252 253 245 237 199 186 190 202 197 191 186 184 188 184 186 187 180 184 182 186 182 182 180 185 180 184 178 182 170 170 171 176 174 178 154 157 143 145
276 274 275 270 272 266 253 259 260 268 259 246 236 234 245 198 210 198 195 200 193 183 183 188 187 186 187 186 188 183 188 186 181 182 184 182 183 177 175 175 171 181 187 165 160 160 162 161 161
254 264 268 277 271 269 265 280 268 256 253 278 286 269 228 223 202 200 196 190 195 190 184 188 187 185 184 186 186 185 189 179 184 183 184 185 183 178 172 175 178 177 167 174 172 173 172 167 160
255 259 265 265 263 273 256 266 279 260 270 266 245 264 278 272 231 194 194 187 190 195 182 182 183 183 184 186 184 189 187 183 184 182 182 187 184 179 174 178 186 168 175 176 175 175 169 174 167
260 265 268 272 281 293 293 289 280 287 258 236 269 251 242 244 262 197 188 179 182 190 178 179 177 179 180 184 185 187 178 185 181 179 182 186 186 179 176 182 185 170 180 177 180 173 176 158 164
269 270 272 280 285 277 284 279 277 270 272 276 261 252 258 246 241 247 178 168 178 188 175 179 180 175 181 185 190 189 183 186 181 178 186 189 187 182 177 186 183 175 179 185 176 176 168 173 174
259 259 275 276 279 276 282 278 275 275 265 260 257 256 250 249 255 234 183 172 173 188 176 180 182 179 179 183 186 189 185 184 183 183 178 184 188 186 182 184 180 177 186 181 180 180 182 168 198
271 273 279 286 285 278 273 278 276 290 286 276 242 278 229 252 312 299 235 178 174 184 176 179 183 180 182 182 186 191 190 184 185 178 174 182 187 189 184 184 183 181 180 181 186 187 189 194 179
270 324 306 291 293 314 269 262 278 277 283 274 262 47 40 32 25 4 4 216 184 179 175 177 181 180 184 188 191 193 195 191 184 179 177 182 182 190 187 183 183 178 179 181 180 186 192 176 186
302 318 319 288 266 260 263 257 274 275 331 276 72 61 42 30 21 22 14 9 176 174 161 171 173 183 185 188 197 197 194 185 177 177 179 178 180 184 187 185 185 180 179 179 181 182 176 183 163
243 275 301 254 231 241 259 258 239 344 56 56 72 61 39 29 18 19 23 26 14 153 147 166 177 185 183 186 198 203 193 185 189 186 181 177 180 183 186 182 183 176 181 181 174 168 168 161 157
307 255 247 270 255 314 324 264 44 13 52 61 72 62 51 40 33 27 17 10 27 21 179 166 178 187 187 190 196 202 197 193 205 189 185 184 184 186 180 180 181 174 175 171 167 167 160 160 157
342 271 325 297 251 260 249 256 173 82 29 22 16 360 2 12 19 38 35 11 4 18 4 258 179 184 190 195 193 200 199 196 204 200 195 189 185 182 183 175 173 173 170 169 165 159 156 157 151
302 360 295 231 269 255 256 263 83 79 66 24 11 13 343 351 356 356 37 57 13 359 356 344 294 224 199 190 192 196 202 202 200 210 197 188 184 180 177 176 168 166 169 166 166 157 155 146 146
198 201 59 276 283 289 281 271 123 88 69 32 348 347 348 341 337 341 346 50 78 7 335 324 308 277 248 195 194 196 196 199 205 211 196 190 185 185 173 175 177 173 173 168 166 165 156 153 148
254 274 192 241 195 261 302 284 162 146 122 38 312 307 301 301 312 328 333 328 178 189 225 267 270 268 266 252 217 196 193 198 199 205 193 189 185 186 176 174 170 173 171 172 169 160 162 156 152